Stations météo

réclame
Mon MeteoGroup
Aberdeen/Dyce, Grande-Bretagne (3091): Température de l'air & dewpoint: 14.11.2017 00:00:00 - 20.11.2017 00:00:00 (GMT)Aberdeen/Dyce, Grande-Bretagne (3091): Vitesse du vent & gusts: 14.11.2017 00:00:00 - 20.11.2017 00:00:00 (GMT)Aberdeen/Dyce, Grande-Bretagne (3091): Direction du vent: 14.11.2017 00:00:00 - 20.11.2017 00:00:00 (GMT)Aberdeen/Dyce, Grande-Bretagne (3091): reduced air pressure: 14.11.2017 00:00:00 - 20.11.2017 00:00:00 (GMT)Aberdeen/Dyce, Grande-Bretagne (3091): visibility: 14.11.2017 00:00:00 - 20.11.2017 00:00:00 (GMT)Aberdeen/Dyce, Grande-Bretagne (3091): Ensoleillement: 14.11.2017 00:00:00 - 20.11.2017 00:00:00 (GMT)Aberdeen/Dyce, Grande-Bretagne (3091): Quantités de précipitations: 14.11.2017 00:00:00 - 20.11.2017 00:00:00 (GMT)
Date & Time tt [°C] td [°C] ff [km/h] ff [knt] fx [km/h] fx [knt] dd ppp [hPa] vv [km] sd [min] rr [mm]
20.11.2017 00:00:00 3,4 0,4 4 2 - - - 1015,7 10 - 0,0
19.11.2017 23:00:00 2,5 0,6 4 2 - - - 1016,0 10 0 0,0
19.11.2017 22:00:00 2,8 0,3 4 2 - - - 1017,0 10 0 0,0
19.11.2017 21:00:00 2,9 0,3 4 2 - - - 1017,9 10 0 0,0
19.11.2017 20:00:00 3,5 0,1 2 1 - - - 1018,3 10 0 0,0
19.11.2017 19:00:00 4,3 -0,1 5 3 - - - 1018,6 10 0 0,0
19.11.2017 18:00:00 4,3 0,2 11 6 - - WSW 1019,1 10 0 0,0
19.11.2017 17:00:00 4,6 0,5 11 6 - - WNW 1019,4 10 0 0,0
19.11.2017 16:00:00 4,8 0,7 13 7 - - WNW 1019,6 10 0 0,0
19.11.2017 15:00:00 5,1 0,6 11 6 - - W 1019,7 10 24 0,0
19.11.2017 14:00:00 5,8 0,4 11 6 - - W 1020,0 10 42 0,0
19.11.2017 13:00:00 6,0 0,1 13 7 - - WNW 1020,1 10 60 0,0
19.11.2017 12:00:00 5,6 0,5 24 13 - - NW 1020,1 10 60 0,0
19.11.2017 11:00:00 5,1 0,3 11 6 - - WNW 1020,5 10 60 0,0
19.11.2017 10:00:00 3,7 -0,2 13 7 - - W 1020,6 10 60 0,0
19.11.2017 09:00:00 2,9 -0,4 16 9 - - W 1020,5 10 12 0,0
19.11.2017 08:00:00 3,1 -0,5 18 10 - - W 1020,0 10 0 -
19.11.2017 07:00:00 3,4 -0,3 18 10 - - WNW 1019,6 10 0 0,0
19.11.2017 06:00:00 3,7 0,0 21 11 - - WNW 1019,4 10 0 0,0
19.11.2017 05:00:00 4,0 -0,1 28 15 46 25 WNW 1019,1 10 0 0,0
19.11.2017 04:00:00 4,3 -0,1 28 15 - - WNW 1018,8 10 0 0,0
19.11.2017 03:00:00 4,0 -0,1 24 13 - - WNW 1018,5 10 0 0,0
19.11.2017 02:00:00 4,0 0,2 22 12 - - W 1018,3 10 0 0,0
19.11.2017 01:00:00 4,1 0,5 24 13 - - WNW 1017,4 10 0 0,0
19.11.2017 00:00:00 4,2 0,8 26 14 - - WNW 1017,3 10 - 0,0
18.11.2017 23:00:00 4,2 1,2 24 13 - - WNW 1017,0 10 0 0,0
18.11.2017 22:00:00 4,4 1,2 29 16 46 25 WNW 1016,6 10 0 0,0
18.11.2017 21:00:00 4,5 1,1 28 15 46 25 WNW 1016,2 10 0 0,0
18.11.2017 20:00:00 4,5 1,4 24 13 - - WNW 1016,1 10 0 0,2
18.11.2017 19:00:00 4,2 1,9 22 12 - - W 1015,7 10 0 0,4
18.11.2017 18:00:00 4,3 1,0 31 17 50 27 WNW 1015,4 10 0 0,0
18.11.2017 17:00:00 4,6 0,3 35 19 63 34 WNW 1014,8 10 0 0,0
18.11.2017 16:00:00 5,4 -1,2 29 16 55 30 WNW 1014,6 10 6 0,0
18.11.2017 15:00:00 5,9 -1,5 34 18 61 33 WNW 1014,4 10 60 0,0
18.11.2017 14:00:00 6,0 -1,3 39 21 55 30 WNW 1013,9 10 60 0,0
18.11.2017 13:00:00 6,0 -1,6 34 18 55 30 WNW 1014,1 10 60 0,0
18.11.2017 12:00:00 5,7 -1,9 29 16 57 31 W 1014,0 10 60 0,0
18.11.2017 11:00:00 5,1 -1,2 24 13 48 26 W 1014,3 10 60 0,0
18.11.2017 10:00:00 4,6 -1,6 22 12 - - WNW 1014,3 10 60 0,0
18.11.2017 09:00:00 4,0 -0,9 31 17 54 29 WNW 1013,8 10 0 0,0
18.11.2017 08:00:00 3,8 -1,3 34 18 48 26 W 1013,7 10 0 0,0
18.11.2017 07:00:00 3,7 -1,0 21 11 - - W 1013,7 10 0 0,0
18.11.2017 06:00:00 2,9 -0,3 24 13 - - W 1013,3 10 0 0,0
18.11.2017 05:00:00 3,7 -0,9 26 14 - - W 1013,1 10 0 0,0
18.11.2017 04:00:00 3,5 0,6 24 13 - - W 1012,9 10 0 0,0
18.11.2017 03:00:00 4,1 1,9 22 12 67 36 WNW 1013,0 10 0 0,2
18.11.2017 02:00:00 5,2 1,2 24 13 - - WNW 1012,5 10 0 0,0
18.11.2017 01:00:00 4,9 1,6 21 11 46 25 WNW 1012,6 10 0 0,2
18.11.2017 00:00:00 5,5 3,1 24 13 52 28 WNW 1012,7 10 - 0,2
17.11.2017 23:00:00 6,5 2,2 16 9 - - W 1012,5 10 0 0,0
17.11.2017 22:00:00 6,7 2,0 18 10 - - W 1012,8 10 0 0,0
17.11.2017 21:00:00 6,5 1,5 11 6 - - WSW 1013,4 10 0 0,0
17.11.2017 20:00:00 6,7 1,3 16 9 - - W 1013,5 10 0 0,0
17.11.2017 19:00:00 6,2 1,1 13 7 - - WSW 1014,2 10 0 0,0
17.11.2017 18:00:00 5,3 1,1 9 5 - - SW 1014,7 10 0 0,0
17.11.2017 17:00:00 6,8 1,3 13 7 - - WSW 1015,3 10 0 0,0
17.11.2017 16:00:00 8,0 1,8 16 9 - - W 1016,0 10 6 0,0
17.11.2017 15:00:00 8,7 2,2 15 8 - - WSW 1016,2 10 60 0,0
17.11.2017 14:00:00 9,1 2,0 16 9 - - WSW 1016,7 10 54 0,0
17.11.2017 13:00:00 8,6 2,2 16 9 - - SW 1017,6 10 18 0,0
17.11.2017 12:00:00 6,9 2,3 15 8 - - SW 1018,1 10 0 0,0
17.11.2017 11:00:00 6,3 2,2 18 10 - - SSW 1018,4 10 0 0,0
17.11.2017 10:00:00 5,2 1,7 18 10 - - S 1018,9 10 0 0,0
17.11.2017 09:00:00 4,8 1,0 13 7 - - S 1019,5 10 0 0,0
17.11.2017 08:00:00 5,7 1,0 13 7 - - SSW 1019,8 10 0 0,0
17.11.2017 07:00:00 3,9 -0,1 13 7 - - SSW 1019,7 10 0 0,0
17.11.2017 06:00:00 3,7 -0,3 15 8 - - SSW 1019,7 10 0 -
17.11.2017 05:00:00 3,6 0,0 16 9 - - SSW 1020,1 10 0 0,0
17.11.2017 04:00:00 3,6 -0,3 16 9 - - SSW 1020,6 10 0 0,0
17.11.2017 03:00:00 3,4 -0,9 15 8 - - SW 1021,1 10 0 0,0
17.11.2017 02:00:00 3,6 -0,8 16 9 - - SW 1021,4 10 0 0,0
17.11.2017 01:00:00 3,9 -0,9 18 10 - - SW 1021,6 10 0 0,0
17.11.2017 00:00:00 4,3 -1,2 21 11 - - SW 1021,7 10 - 0,0
16.11.2017 23:00:00 3,9 -1,0 13 7 - - WSW 1021,4 10 0 0,0
16.11.2017 22:00:00 3,5 -1,1 11 6 - - SSW 1021,3 10 0 0,0
16.11.2017 21:00:00 5,1 -0,6 18 10 - - W 1020,6 10 0 0,0
16.11.2017 20:00:00 5,0 -0,3 22 12 - - WSW 1020,1 10 0 0,0
16.11.2017 19:00:00 5,1 -0,7 16 9 - - WSW 1019,6 10 0 0,0
16.11.2017 18:00:00 5,4 -1,0 22 12 - - W 1018,8 10 0 0,0
16.11.2017 17:00:00 5,4 -1,2 18 10 - - WSW 1018,1 10 0 0,0
16.11.2017 16:00:00 5,6 -0,6 18 10 - - WSW 1017,2 10 6 0,0
16.11.2017 15:00:00 6,7 -0,6 21 11 - - W 1016,4 10 60 0,0
16.11.2017 14:00:00 6,8 -0,1 22 12 48 26 W 1015,4 10 60 0,0
16.11.2017 13:00:00 6,6 -0,3 29 16 48 26 W 1014,8 10 60 0,0
16.11.2017 12:00:00 6,6 -0,6 31 17 48 26 W 1014,2 10 60 0,0
16.11.2017 11:00:00 6,3 -0,1 24 13 63 34 W 1013,0 10 48 0,0
16.11.2017 10:00:00 6,4 1,9 24 13 - - W 1011,7 10 6 0,0
16.11.2017 09:00:00 6,5 2,8 16 9 52 28 W 1010,1 10 0 0,0
16.11.2017 08:00:00 8,4 5,0 16 9 - - WNW 1008,5 10 0 0,0
16.11.2017 07:00:00 9,1 5,1 15 8 - - WSW 1006,9 10 0 0,4
16.11.2017 06:00:00 9,6 7,8 21 11 - - SSW 1006,8 10 0 0,0
16.11.2017 05:00:00 9,3 7,4 34 18 55 30 S 1006,6 10 0 0,0
16.11.2017 04:00:00 8,9 7,1 29 16 48 26 S 1006,8 10 0 0,0
16.11.2017 03:00:00 8,7 6,6 28 15 54 29 SW 1008,2 10 0 0,0
16.11.2017 02:00:00 8,5 6,2 29 16 - - SW 1009,1 10 0 0,0
16.11.2017 01:00:00 7,5 5,4 16 9 46 25 S 1010,8 10 0 0,0
16.11.2017 00:00:00 7,2 4,8 28 15 48 26 S 1012,2 10 - 0,0
15.11.2017 23:00:00 7,4 4,6 29 16 46 25 S 1013,2 10 0 0,0
15.11.2017 22:00:00 7,3 5,1 29 16 - - S 1014,7 10 0 0,0
15.11.2017 21:00:00 7,0 5,1 22 12 - - S 1016,1 10 0 0,0
15.11.2017 20:00:00 7,2 5,0 15 8 - - S 1017,1 10 0 0,0
15.11.2017 19:00:00 7,1 5,6 16 9 - - S 1017,9 10 0 -
15.11.2017 18:00:00 6,7 4,9 15 8 - - S 1018,8 10 0 0,0
15.11.2017 17:00:00 6,2 4,5 16 9 - - S 1019,4 10 0 0,0
15.11.2017 16:00:00 6,7 3,8 15 8 - - S 1020,1 10 0 0,0
15.11.2017 15:00:00 7,0 3,8 8 4 - - SSE 1020,8 3,9 0 0,0
15.11.2017 14:00:00 8,0 3,6 9 5 - - S 1021,4 10 42 0,0
15.11.2017 13:00:00 8,0 3,2 9 5 - - S 1021,9 10 60 0,0
15.11.2017 12:00:00 5,7 3,6 4 2 - - - 1022,8 10 60 0,0
15.11.2017 11:00:00 3,4 2,6 5 3 - - N 1023,1 10 12 0,0
15.11.2017 10:00:00 2,3 1,0 5 3 - - - 1023,2 10 0 0,0
15.11.2017 09:00:00 1,6 1,0 4 2 - - - 1022,8 10 6 0,0
15.11.2017 08:00:00 2,4 1,8 8 4 - - - 1022,4 10 0 0,0
15.11.2017 07:00:00 -0,1 -0,6 4 2 - - - 1021,9 10 0 0,0
15.11.2017 06:00:00 1,1 0,7 4 2 - - - 1021,3 10 0 0,0
15.11.2017 05:00:00 2,5 1,9 8 4 - - W 1021,2 10 0 0,0
15.11.2017 04:00:00 2,8 1,9 4 2 - - - 1020,8 10 0 0,0
15.11.2017 03:00:00 2,9 1,8 11 6 - - SW 1020,4 10 0 0,0
15.11.2017 02:00:00 5,7 2,5 9 5 - - W 1019,8 10 0 0,0
15.11.2017 01:00:00 5,6 1,8 4 2 - - - 1019,3 10 0 0,0
15.11.2017 00:00:00 5,6 3,3 4 2 - - - 1018,6 10 - 0,0
14.11.2017 23:00:00 5,2 2,1 11 6 - - WSW 1018,0 10 0 0,0
14.11.2017 22:00:00 4,3 2,0 5 3 - - - 1018,1 10 0 0,0
14.11.2017 21:00:00 5,9 2,9 11 6 - - WSW 1017,3 10 0 0,0
14.11.2017 20:00:00 6,3 2,7 5 3 - - - 1017,1 10 0 0,0
14.11.2017 19:00:00 6,9 3,6 15 8 - - SSW 1017,0 10 0 0,0
14.11.2017 18:00:00 6,8 3,8 11 6 - - SW 1016,8 10 0 0,0
14.11.2017 17:00:00 6,1 3,2 5 3 - - - 1016,6 10 0 0,0
14.11.2017 16:00:00 7,3 4,6 5 3 - - - 1016,5 10 0 0,0
14.11.2017 15:00:00 8,6 5,2 5 3 - - - 1016,7 10 0 0,0
14.11.2017 14:00:00 9,2 4,6 11 6 - - SW 1016,5 10 0 0,0
14.11.2017 13:00:00 9,1 5,1 4 2 - - - 1016,5 10 18 0,0
14.11.2017 12:00:00 9,0 5,1 9 5 - - SSW 1016,5 10 36 0,0
14.11.2017 11:00:00 8,5 5,1 9 5 - - SW 1016,8 10 42 0,0
14.11.2017 10:00:00 8,2 5,1 11 6 - - W 1016,6 10 42 0,0
14.11.2017 09:00:00 7,9 5,3 8 4 - - W 1016,1 10 6 0,0
14.11.2017 08:00:00 6,7 5,3 11 6 - - WSW 1015,4 10 0 -
14.11.2017 07:00:00 7,3 5,2 9 5 - - SW 1014,8 10 0 0,0
14.11.2017 06:00:00 8,0 5,0 18 10 - - WNW 1013,9 10 0 0,0
14.11.2017 05:00:00 7,1 4,9 11 6 - - W 1013,5 10 0 0,0
14.11.2017 04:00:00 7,7 5,3 15 8 - - WNW 1012,6 10 0 0,0
14.11.2017 03:00:00 8,4 5,4 24 13 - - WNW 1012,1 10 0 0,0
14.11.2017 02:00:00 8,4 6,3 21 11 - - WNW 1011,6 10 0 0,0
14.11.2017 01:00:00 8,0 7,1 15 8 - - WNW 1011,6 10 0 0,4
14.11.2017 00:00:00 6,4 5,9 8 4 - - WNW 1011,0 5 - 0,0

tt = Température de l'air
td = dewpoint
ff = Vitesse du vent
fx = gusts
dd = Direction du vent
ppp = reduced air pressure
vv = visibility
sd = Ensoleillement
rr = Quantités de précipitations

stations d'obs. à proximité